[[{"header":{"parameterUnit":"m.s-1","parameterCategory":1,"la1":30.2992,"la2":30.254,"lo1":-89.0895,"lo2":-89.0443,"dy":0.0025,"dx":0.0025,"nx":19,"ny":19,"refTime":"2026-05-22T21:00:00:Z","depth":0,"parameterNumber":2,"parameterNumberName":"U-component_of_WINDS"},"data":[0,0,0,-1.9904,-1.9907,-2.0078,-2.0079,-2.0291,-2.0293,0,0,0,0,0,0,0,0,0,0,0,-1.9845,-1.9846,-1.9903,-1.9907,-2.0078,-2.0079,-2.0291,-2.0293,0,0,0,0,0,0,0,0,0,0,0,-1.9845,-1.9846,-1.9847,-1.9908,-2.0078,-2.0079,-2.029,-2.0164,0,0,0,0,0,0,0,0,0,0,-2.0,-1.9937,-1.9846,-1.9847,-1.9909,-2.0078,-2.0079,-2.0158,-2.0172,-2.0209,0,-2.0237,0,-2.0268,-2.0306,-2.0307,0,0,0,-1.9914,-1.9926,-1.9979,-1.9848,-1.991,-2.0078,-2.0003,-2.0166,-2.0182,-2.0227,-2.024,-2.0249,-2.0272,-2.0307,-2.0308,-2.0494,-2.0495,0,0,-1.9904,-1.9872,-1.9968,-1.9988,-1.9958,-1.9997,-2.0008,-2.0176,-2.0189,-2.0241,-2.0254,-2.0275,-2.0309,-2.031,-2.0494,-2.0495,0,0,0,-1.9873,-1.9865,-1.9915,-1.9979,-2.001,-2.0002,-2.0015,-2.0181,-2.02,-2.0256,-2.0278,-2.031,-2.0312,-2.0493,-2.0494,-2.0489,0,0,0,-1.9867,-1.9847,-1.991,-1.9892,-2.0007,-2.0097,-2.0016,-2.0188,-2.0208,-2.0277,-2.031,-2.0314,-2.0493,-2.0494,-2.0488,-2.0492,0,0,0,-1.9837,-1.9844,-1.9865,-1.989,-1.9962,-2.0095,-2.0124,-2.0193,-2.0221,-2.0307,-2.0315,-2.0492,-2.0494,-2.0487,-2.049,-2.0531,0,0,0,-1.9795,-1.986,-1.9865,-1.9946,-1.9961,-2.0091,-2.0123,-2.0222,-2.0295,-2.0311,-2.0493,-2.0494,-2.0487,-2.049,-2.053,-2.0558,-2.0567,0,0,-1.9859,-1.9866,-1.9917,-1.9926,-2.0046,-2.0067,-2.0189,-2.0287,-2.0326,-2.0437,-2.0442,-2.0488,-2.049,-2.0531,-2.0632,-2.0638,0,0,0,-1.9926,-1.9962,-2.0001,-2.0067,-2.0143,-2.0209,-2.0292,-2.0329,-2.0425,-2.0375,-2.0516,-2.0518,-2.0543,-2.0558,-2.0564,-2.0588,-2.05,-2.05,-2.05,-1.9969,-2.0014,-2.0101,-2.0167,-2.0233,-2.0318,-2.0376,-2.0441,-2.0469,-2.0502,-2.0534,-2.0589,-2.0606,-2.0611,-2.0635,-2.0554,-2.0554,-2.0554,-2.0554,-2.0065,-2.0123,-2.0159,-2.0255,-2.0304,-2.0387,-2.0474,-2.0491,-2.0578,-2.0568,-2.0593,-2.0577,-2.0616,-2.064,-2.0554,-2.0554,-2.0554,-2.0554,-2.0554,-2.0097,-2.0132,-2.0176,-2.0278,-2.0353,-2.0421,-2.0501,-2.0544,-2.0586,-2.061,-2.0649,-2.0649,-2.0654,-2.0626,-2.0626,-2.0626,-2.0626,-2.0627,-2.0627,-2.0112,-2.0161,-2.0222,-2.0309,-2.0359,-2.043,-2.0519,-2.0571,-2.0638,-2.0664,-2.0664,-2.0689,-2.0612,-2.0591,-2.063,-2.0629,-2.0629,-2.0629,-2.0628,-2.0189,-2.0179,-2.0273,-2.0323,-2.043,-2.0503,-2.0557,-2.0658,-2.0707,-2.0746,-2.0768,-2.0704,-2.0715,-2.0711,-2.0693,-2.0757,-2.0757,-2.0757,-2.0757,-2.0215,-2.0225,-2.0332,-2.0408,-2.0489,-2.0548,-2.0657,-2.0729,-2.0802,-2.0836,-2.0834,-2.0815,-2.0809,-2.0824,-2.0818,-2.0802,-2.0892,-2.0892,-2.0892,-2.0265,-2.0286,-2.0367,-2.0436,-2.0524,-2.06,-2.0704,-2.0793,-2.0875,-2.0898,-2.0864,-2.0858,-2.0829,-2.0817,-2.0836,-2.0825,-2.0798,0,0]},{"header":{"parameterUnit":"m.s-1","parameterCategory":1,"la1":30.2992,"la2":30.254,"lo1":-89.0895,"lo2":-89.0443,"dy":0.0025,"dx":0.0025,"nx":19,"ny":19,"refTime":"2026-05-22T21:00:00:Z","depth":0,"parameterNumber":3,"parameterNumberName":"V-component_of_WINDS"},"data":[0,0,0,2.8256,2.8259,2.8424,2.8425,2.8627,2.8629,0,0,0,0,0,0,0,0,0,0,0,2.8203,2.8204,2.8256,2.826,2.8424,2.8425,2.8627,2.8629,0,0,0,0,0,0,0,0,0,0,0,2.8202,2.8203,2.8205,2.826,2.8424,2.8425,2.8626,2.8505,0,0,0,0,0,0,0,0,0,0,2.8347,2.8293,2.8203,2.8205,2.8261,2.8424,2.8425,2.8499,2.8513,2.8549,0,2.8581,0,2.8608,2.8642,2.8643,0,0,0,2.8263,2.8282,2.833,2.8205,2.8263,2.8423,2.8351,2.8507,2.8522,2.8567,2.8584,2.8592,2.8612,2.8643,2.8644,2.8846,2.8847,0,0,2.8254,2.823,2.832,2.834,2.8314,2.8345,2.8356,2.8516,2.8533,2.8585,2.8597,2.8615,2.8645,2.8646,2.8845,2.8846,0,0,0,2.8226,2.8223,2.8268,2.8331,2.8362,2.835,2.8362,2.8526,2.8542,2.8599,2.8617,2.8646,2.8648,2.8845,2.8846,2.8861,0,0,0,2.822,2.8207,2.8264,2.825,2.8358,2.8446,2.8368,2.8531,2.855,2.8616,2.8646,2.865,2.8844,2.8845,2.8859,2.8872,0,0,0,2.8193,2.8203,2.8226,2.8249,2.8319,2.8444,2.847,2.8536,2.8561,2.8643,2.8651,2.8843,2.8845,2.8857,2.8869,2.8919,0,0,0,2.8158,2.8236,2.8225,2.8321,2.8317,2.8452,2.8469,2.8571,2.8642,2.8647,2.8844,2.8846,2.8856,2.8867,2.8916,2.8956,2.897,0,0,2.8243,2.8246,2.8304,2.8299,2.843,2.8429,2.8562,2.8651,2.8681,2.8789,2.8795,2.886,2.8869,2.8918,2.9058,2.9069,0,0,0,2.8323,2.8364,2.8404,2.8472,2.8542,2.8603,2.8674,2.8707,2.8801,2.8731,2.8892,2.8898,2.8928,2.8948,2.8957,2.8985,2.8854,2.8854,2.8853,2.8409,2.8444,2.8543,2.8597,2.8663,2.8736,2.8792,2.8849,2.8864,2.8902,2.8934,2.9015,2.9037,2.9044,2.9072,2.8958,2.8958,2.8958,2.8958,2.8538,2.8602,2.8622,2.8725,2.8761,2.8848,2.8922,2.893,2.9016,2.8993,2.9021,2.8992,2.9055,2.9082,2.8959,2.8959,2.8959,2.8959,2.8959,2.8598,2.8635,2.8674,2.8776,2.8851,2.8904,2.8986,2.9017,2.9045,2.9073,2.9111,2.9111,2.9114,2.9089,2.909,2.909,2.909,2.909,2.9091,2.8644,2.8689,2.8754,2.8836,2.8884,2.8951,2.9026,2.9074,2.9135,2.9151,2.9151,2.9163,2.9055,2.9027,2.9095,2.9094,2.9094,2.9093,2.9093,2.8762,2.874,2.8841,2.889,2.8989,2.9062,2.91,2.9195,2.924,2.9279,2.9286,2.9201,2.9206,2.9199,2.9176,2.9278,2.9278,2.9278,2.9278,2.8812,2.8818,2.8929,2.9004,2.9081,2.9126,2.924,2.93,2.9358,2.9387,2.9377,2.935,2.9341,2.9351,2.934,2.9319,2.9456,2.9456,2.9456,2.8886,2.8901,2.8992,2.9049,2.9129,2.9197,2.9306,2.9391,2.9453,2.9464,2.9411,2.9404,2.936,2.9344,2.9352,2.9335,2.9297,0,0]}]]